Time,TemperatureF,DewpointF,PressureIn,WindDirection,WindDirectionDegrees,WindSpeedMPH,WindSpeedGustMPH,Humidity,HourlyPrecipIn,Conditions,Clouds,dailyrainin,SoftwareType,DateUTC
2013-04-17 00:00:00,61.2,57.9,30.26,SSW,213,0.0,1.0,89,0.00,,,0.00,Weather View 32 v70,2013-04-17 04:00:00,
2013-04-17 00:05:00,61.3,58.0,30.26,SSW,213,0.0,1.0,89,0.00,,,0.00,Weather View 32 v70,2013-04-17 04:05:00,
2013-04-17 00:10:00,61.5,58.2,30.26,SSW,213,0.0,1.0,89,0.00,,,0.00,Weather View 32 v70,2013-04-17 04:10:00,
2013-04-17 00:15:00,61.5,58.2,30.26,SSW,213,0.0,1.0,89,0.00,,,0.00,Weather View 32 v70,2013-04-17 04:15:00,
2013-04-17 00:20:00,61.6,58.3,30.26,SSW,213,0.0,1.0,89,0.00,,,0.00,Weather View 32 v70,2013-04-17 04:20:00,
2013-04-17 00:25:00,61.6,58.3,30.26,SSW,213,0.0,0.0,89,0.00,,,0.00,Weather View 32 v70,2013-04-17 04:25:00,
2013-04-17 00:30:00,61.5,58.2,30.26,SSW,213,0.0,0.0,89,0.00,,,0.00,Weather View 32 v70,2013-04-17 04:30:00,
2013-04-17 00:36:00,61.6,58.3,30.26,SSW,211,0.0,0.0,89,0.00,,,0.00,Weather View 32 v70,2013-04-17 04:36:00,
2013-04-17 00:41:00,61.6,58.3,30.26,SSW,210,0.0,0.0,89,0.00,,,0.00,Weather View 32 v70,2013-04-17 04:41:00,
2013-04-17 00:46:00,61.6,58.3,30.26,SSW,210,0.0,0.0,89,0.00,,,0.00,Weather View 32 v70,2013-04-17 04:46:00,
2013-04-17 00:51:00,61.4,58.1,30.26,South,175,0.0,0.0,89,0.00,,,0.00,Weather View 32 v70,2013-04-17 04:51:00,
2013-04-17 00:56:00,61.3,58.0,30.26,South,175,0.0,0.0,89,0.00,,,0.00,Weather View 32 v70,2013-04-17 04:56:00,
2013-04-17 01:01:00,61.0,58.0,30.26,SSW,205,0.0,0.0,90,0.00,,,0.00,Weather View 32 v70,2013-04-17 05:01:00,
2013-04-17 01:06:00,60.8,57.5,30.26,NW,321,0.0,0.0,89,0.00,,,0.00,Weather View 32 v70,2013-04-17 05:06:00,
2013-04-17 01:11:00,60.7,57.7,30.25,SSW,211,0.0,0.0,90,0.00,,,0.00,Weather View 32 v70,2013-04-17 05:11:00,
2013-04-17 01:16:00,60.8,57.8,30.25,SSW,205,0.0,0.0,90,0.00,,,0.00,Weather View 32 v70,2013-04-17 05:16:00,
2013-04-17 01:21:00,60.8,57.8,30.25,NNE,31,0.0,0.0,90,0.00,,,0.00,Weather View 32 v70,2013-04-17 05:21:00,
2013-04-17 01:26:00,60.7,57.7,30.25,NNE,31,0.0,0.0,90,0.00,,,0.00,Weather View 32 v70,2013-04-17 05:26:00,
2013-04-17 01:31:00,60.7,57.7,30.25,NE,40,0.0,0.0,90,0.00,,,0.00,Weather View 32 v70,2013-04-17 05:31:00,
2013-04-17 01:36:00,60.7,57.7,30.25,NE,41,0.0,0.0,90,0.00,,,0.00,Weather View 32 v70,2013-04-17 05:36:00,
2013-04-17 01:41:00,60.8,57.8,30.25,SSW,204,0.0,0.0,90,0.00,,,0.00,Weather View 32 v70,2013-04-17 05:41:00,
2013-04-17 01:46:00,60.9,57.9,30.25,SSW,203,0.0,0.0,90,0.00,,,0.00,Weather View 32 v70,2013-04-17 05:46:00,
2013-04-17 01:51:00,61.0,58.0,30.24,SSW,205,0.0,0.0,90,0.00,,,0.00,Weather View 32 v70,2013-04-17 05:51:00,
2013-04-17 01:56:00,61.1,58.1,30.25,SSW,205,0.0,0.0,90,0.00,,,0.00,Weather View 32 v70,2013-04-17 05:56:00,
2013-04-17 02:01:00,61.0,58.0,30.24,SSW,205,0.0,0.0,90,0.00,,,0.00,Weather View 32 v70,2013-04-17 06:01:00,
2013-04-17 02:06:00,61.0,58.0,30.24,SSW,206,0.0,0.0,90,0.00,,,0.00,Weather View 32 v70,2013-04-17 06:06:00,
2013-04-17 02:11:00,60.6,57.6,30.24,SSW,201,0.0,0.0,90,0.00,,,0.00,Weather View 32 v70,2013-04-17 06:11:00,
2013-04-17 02:16:00,60.3,57.3,30.24,SW,223,0.0,0.0,90,0.00,,,0.00,Weather View 32 v70,2013-04-17 06:16:00,
2013-04-17 02:21:00,60.1,57.5,30.24,SW,218,0.0,0.0,91,0.00,,,0.00,Weather View 32 v70,2013-04-17 06:21:00,
2013-04-17 02:26:00,59.8,57.2,30.25,SW,217,0.0,0.0,91,0.00,,,0.00,Weather View 32 v70,2013-04-17 06:26:00,
2013-04-17 02:31:00,59.5,57.2,30.25,SW,217,0.0,0.0,92,0.00,,,0.00,Weather View 32 v70,2013-04-17 06:31:00,
2013-04-17 02:36:00,59.3,57.0,30.24,SSW,212,0.0,0.0,92,0.00,,,0.00,Weather View 32 v70,2013-04-17 06:36:00,
2013-04-17 02:41:00,59.1,56.8,30.24,SSW,205,0.0,0.0,92,0.00,,,0.00,Weather View 32 v70,2013-04-17 06:41:00,
2013-04-17 02:46:00,59.0,56.7,30.24,SSW,205,0.0,0.0,92,0.00,,,0.00,Weather View 32 v70,2013-04-17 06:46:00,
2013-04-17 02:51:00,58.8,56.5,30.24,SSW,205,0.0,0.0,92,0.00,,,0.00,Weather View 32 v70,2013-04-17 06:51:00,
2013-04-17 02:56:00,58.7,56.4,30.24,SW,215,0.0,0.0,92,0.00,,,0.00,Weather View 32 v70,2013-04-17 06:56:00,
2013-04-17 03:01:00,58.5,56.5,30.24,SSW,205,0.0,1.0,93,0.00,,,0.00,Weather View 32 v70,2013-04-17 07:01:00,
2013-04-17 03:06:00,58.5,56.5,30.24,SSW,208,0.0,1.0,93,0.00,,,0.00,Weather View 32 v70,2013-04-17 07:06:00,
2013-04-17 03:11:00,58.4,56.4,30.24,SSW,203,0.0,1.0,93,0.00,,,0.00,Weather View 32 v70,2013-04-17 07:11:00,
2013-04-17 03:17:00,58.4,56.4,30.24,SSW,203,0.0,1.0,93,0.00,,,0.00,Weather View 32 v70,2013-04-17 07:17:00,
2013-04-17 03:22:00,58.3,56.3,30.25,SSW,207,0.0,1.0,93,0.00,,,0.00,Weather View 32 v70,2013-04-17 07:22:00,
2013-04-17 03:27:00,58.1,56.1,30.24,SW,223,0.0,1.0,93,0.00,,,0.00,Weather View 32 v70,2013-04-17 07:27:00,
2013-04-17 03:32:00,57.8,56.1,30.24,SW,218,0.0,1.0,94,0.00,,,0.00,Weather View 32 v70,2013-04-17 07:32:00,
2013-04-17 03:37:00,57.7,56.0,30.25,SW,223,0.0,1.0,94,0.00,,,0.00,Weather View 32 v70,2013-04-17 07:37:00,
2013-04-17 03:42:00,57.7,56.3,30.25,SW,223,0.0,1.0,95,0.00,,,0.00,Weather View 32 v70,2013-04-17 07:42:00,
2013-04-17 03:47:00,57.8,56.4,30.25,SSW,213,0.0,1.0,95,0.00,,,0.00,Weather View 32 v70,2013-04-17 07:47:00,
2013-04-17 03:52:00,57.9,56.5,30.25,SSW,213,0.0,1.0,95,0.00,,,0.00,Weather View 32 v70,2013-04-17 07:52:00,
2013-04-17 03:57:00,58.0,56.6,30.25,SSW,213,0.0,1.0,95,0.00,,,0.00,Weather View 32 v70,2013-04-17 07:57:00,
2013-04-17 04:02:00,58.0,56.6,30.24,SSW,211,0.0,0.0,95,0.00,,,0.00,Weather View 32 v70,2013-04-17 08:02:00,
2013-04-17 04:07:00,58.2,56.5,30.24,SSW,198,0.0,0.0,94,0.00,,,0.00,Weather View 32 v70,2013-04-17 08:07:00,
2013-04-17 04:12:00,58.2,56.5,30.24,SSW,210,0.0,0.0,94,0.00,,,0.00,Weather View 32 v70,2013-04-17 08:12:00,
2013-04-17 04:17:00,58.3,56.6,30.24,SSW,205,0.0,0.0,94,0.00,,,0.00,Weather View 32 v70,2013-04-17 08:17:00,
2013-04-17 04:22:00,58.3,56.6,30.24,SSW,209,0.0,0.0,94,0.00,,,0.00,Weather View 32 v70,2013-04-17 08:22:00,
2013-04-17 04:27:00,58.3,56.9,30.24,SW,217,0.0,0.0,95,0.00,,,0.00,Weather View 32 v70,2013-04-17 08:27:00,
2013-04-17 04:32:00,58.3,56.9,30.24,SSW,205,0.0,0.0,95,0.00,,,0.00,Weather View 32 v70,2013-04-17 08:32:00,
2013-04-17 04:37:00,58.5,57.1,30.24,SSW,206,0.0,0.0,95,0.00,,,0.00,Weather View 32 v70,2013-04-17 08:37:00,
2013-04-17 04:42:00,58.7,57.0,30.24,SSW,211,0.0,0.0,94,0.00,,,0.00,Weather View 32 v70,2013-04-17 08:42:00,
2013-04-17 04:47:00,58.8,57.1,30.25,SSW,208,0.0,0.0,94,0.00,,,0.00,Weather View 32 v70,2013-04-17 08:47:00,
2013-04-17 04:52:00,59.0,57.3,30.25,SW,214,0.0,0.0,94,0.00,,,0.00,Weather View 32 v70,2013-04-17 08:52:00,
2013-04-17 04:57:00,59.2,57.5,30.25,SSW,210,2.0,3.0,94,0.00,,,0.00,Weather View 32 v70,2013-04-17 08:57:00,
2013-04-17 05:02:00,59.5,57.5,30.24,SSW,204,3.0,4.0,93,0.00,,,0.00,Weather View 32 v70,2013-04-17 09:02:00,
2013-04-17 05:07:00,59.7,57.7,30.24,SW,219,3.0,4.0,93,0.00,,,0.00,Weather View 32 v70,2013-04-17 09:07:00,
2013-04-17 05:12:00,60.1,58.1,30.24,SSW,203,2.0,4.0,93,0.00,,,0.00,Weather View 32 v70,2013-04-17 09:12:00,
2013-04-17 05:17:00,60.3,58.0,30.24,SSW,210,1.0,4.0,92,0.00,,,0.00,Weather View 32 v70,2013-04-17 09:17:00,
2013-04-17 05:22:00,60.4,58.1,30.24,SW,216,2.0,4.0,92,0.00,,,0.00,Weather View 32 v70,2013-04-17 09:22:00,
2013-04-17 05:27:00,60.6,58.0,30.24,SSW,203,2.0,4.0,91,0.00,,,0.00,Weather View 32 v70,2013-04-17 09:27:00,
2013-04-17 05:32:00,60.8,58.1,30.25,SSW,204,1.0,4.0,91,0.00,,,0.00,Weather View 32 v70,2013-04-17 09:32:00,
2013-04-17 05:37:00,60.8,58.1,30.24,SSW,207,2.0,4.0,91,0.00,,,0.00,Weather View 32 v70,2013-04-17 09:37:00,
2013-04-17 05:42:00,60.8,58.1,30.24,SSW,210,2.0,4.0,91,0.00,,,0.00,Weather View 32 v70,2013-04-17 09:42:00,
2013-04-17 05:47:00,60.7,58.0,30.24,SSW,210,2.0,4.0,91,0.00,,,0.00,Weather View 32 v70,2013-04-17 09:47:00,
2013-04-17 05:52:00,60.7,58.0,30.24,SW,225,2.0,4.0,91,0.00,,,0.00,Weather View 32 v70,2013-04-17 09:52:00,
2013-04-17 05:57:00,60.8,58.1,30.24,SW,224,2.0,4.0,91,0.00,,,0.00,Weather View 32 v70,2013-04-17 09:57:00,
2013-04-17 06:02:00,60.9,58.2,30.24,SSW,205,0.0,4.0,91,0.00,,,0.00,Weather View 32 v70,2013-04-17 10:02:00,
2013-04-17 06:07:00,60.7,58.0,30.24,SSW,207,3.0,4.0,91,0.00,,,0.00,Weather View 32 v70,2013-04-17 10:07:00,
2013-04-17 06:12:00,60.9,57.9,30.24,SSE,160,0.0,4.0,90,0.00,,,0.00,Weather View 32 v70,2013-04-17 10:12:00,
2013-04-17 06:17:00,60.8,57.8,30.24,SSW,209,0.0,4.0,90,0.00,,,0.00,Weather View 32 v70,2013-04-17 10:17:00,
2013-04-17 06:22:00,60.7,57.7,30.24,SW,218,0.0,4.0,90,0.00,,,0.00,Weather View 32 v70,2013-04-17 10:22:00,
2013-04-17 06:27:00,60.3,57.7,30.24,SSW,205,0.0,4.0,91,0.00,,,0.00,Weather View 32 v70,2013-04-17 10:27:00,
2013-04-17 06:32:00,60.0,57.4,30.24,SW,215,0.0,4.0,91,0.00,,,0.00,Weather View 32 v70,2013-04-17 10:32:00,
2013-04-17 06:37:00,59.6,57.0,30.24,SSW,211,0.0,4.0,91,0.00,,,0.00,Weather View 32 v70,2013-04-17 10:37:00,
2013-04-17 06:42:00,59.3,57.0,30.25,SSW,212,0.0,4.0,92,0.00,,,0.00,Weather View 32 v70,2013-04-17 10:42:00,
2013-04-17 06:47:00,59.1,56.8,30.24,SSW,211,0.0,4.0,92,0.00,,,0.00,Weather View 32 v70,2013-04-17 10:47:00,
2013-04-17 06:52:00,58.8,56.5,30.24,SSW,209,0.0,4.0,92,0.00,,,0.00,Weather View 32 v70,2013-04-17 10:52:00,
2013-04-17 06:57:00,58.4,56.4,30.24,SSW,213,3.0,4.0,93,0.00,,,0.00,Weather View 32 v70,2013-04-17 10:57:00,
2013-04-17 07:02:00,58.2,56.2,30.25,SSW,213,2.0,4.0,93,0.00,,,0.00,Weather View 32 v70,2013-04-17 11:02:00,
2013-04-17 07:07:00,57.9,55.9,30.25,SSW,211,2.0,4.0,93,0.00,,,0.00,Weather View 32 v70,2013-04-17 11:07:00,
2013-04-17 07:12:00,57.7,56.0,30.25,SSW,213,3.0,4.0,94,0.00,,,0.00,Weather View 32 v70,2013-04-17 11:12:00,
2013-04-17 07:17:00,57.7,56.0,30.25,SW,217,3.0,4.0,94,0.00,,,0.00,Weather View 32 v70,2013-04-17 11:17:00,
2013-04-17 07:22:00,57.6,55.9,30.25,SSW,208,0.0,4.0,94,0.00,,,0.00,Weather View 32 v70,2013-04-17 11:22:00,
2013-04-17 07:27:00,57.6,55.9,30.26,SSW,208,0.0,4.0,94,0.00,,,0.00,Weather View 32 v70,2013-04-17 11:27:00,
2013-04-17 07:32:00,57.5,56.1,30.26,SW,220,2.0,4.0,95,0.00,,,0.00,Weather View 32 v70,2013-04-17 11:32:00,
2013-04-17 07:37:00,57.6,56.2,30.26,SW,216,2.0,4.0,95,0.00,,,0.00,Weather View 32 v70,2013-04-17 11:37:00,
2013-04-17 07:42:00,57.6,56.2,30.26,SW,214,2.0,4.0,95,0.00,,,0.00,Weather View 32 v70,2013-04-17 11:42:00,
2013-04-17 07:47:00,57.6,56.2,30.26,SSW,213,2.0,4.0,95,0.00,,,0.00,Weather View 32 v70,2013-04-17 11:47:00,
2013-04-17 07:52:00,57.8,56.4,30.26,SSW,209,2.0,4.0,95,0.00,,,0.00,Weather View 32 v70,2013-04-17 11:52:00,
2013-04-17 07:57:00,57.9,56.8,30.26,SW,216,2.0,4.0,96,0.00,,,0.00,Weather View 32 v70,2013-04-17 11:57:00,
2013-04-17 08:02:00,58.0,56.9,30.25,SW,214,3.0,4.0,96,0.00,,,0.00,Weather View 32 v70,2013-04-17 12:02:00,
2013-04-17 08:07:00,58.2,56.8,30.26,SW,219,2.0,4.0,95,0.00,,,0.00,Weather View 32 v70,2013-04-17 12:07:00,
2013-04-17 08:12:00,58.6,57.2,30.26,SSW,208,3.0,4.0,95,0.00,,,0.00,Weather View 32 v70,2013-04-17 12:12:00,
2013-04-17 08:17:00,58.8,57.4,30.25,SSW,212,3.0,4.0,95,0.00,,,0.00,Weather View 32 v70,2013-04-17 12:17:00,
2013-04-17 08:22:00,59.0,57.6,30.26,SSW,208,2.0,3.0,95,0.00,,,0.00,Weather View 32 v70,2013-04-17 12:22:00,
2013-04-17 08:27:00,59.1,57.7,30.26,SSW,210,2.0,3.0,95,0.00,,,0.00,Weather View 32 v70,2013-04-17 12:27:00,
2013-04-17 08:32:00,59.3,57.9,30.26,SW,214,2.0,3.0,95,0.00,,,0.00,Weather View 32 v70,2013-04-17 12:32:00,
2013-04-17 08:37:00,59.5,58.1,30.25,SSW,211,2.0,3.0,95,0.00,,,0.00,Weather View 32 v70,2013-04-17 12:37:00,
2013-04-17 08:42:00,59.8,58.4,30.25,SW,214,2.0,3.0,95,0.00,,,0.00,Weather View 32 v70,2013-04-17 12:42:00,
2013-04-17 08:47:00,60.3,58.6,30.25,SW,216,2.0,3.0,94,0.00,,,0.00,Weather View 32 v70,2013-04-17 12:47:00,
2013-04-17 08:52:00,60.9,58.9,30.25,SW,215,2.0,3.0,93,0.00,,,0.00,Weather View 32 v70,2013-04-17 12:52:00,
2013-04-17 08:57:00,61.3,58.9,30.25,SW,217,2.0,3.0,92,0.00,,,0.00,Weather View 32 v70,2013-04-17 12:57:00,
2013-04-17 09:02:00,61.7,59.3,30.25,SW,221,3.0,3.0,92,0.00,,,0.00,Weather View 32 v70,2013-04-17 13:02:00,
2013-04-17 09:07:00,62.5,59.5,30.25,SW,231,1.0,3.0,90,0.00,,,0.00,Weather View 32 v70,2013-04-17 13:07:00,
2013-04-17 09:12:00,63.5,59.9,30.25,SSW,211,1.0,3.0,88,0.00,,,0.00,Weather View 32 v70,2013-04-17 13:12:00,
2013-04-17 09:17:00,64.0,59.7,30.25,SSW,212,0.0,3.0,86,0.00,,,0.00,Weather View 32 v70,2013-04-17 13:17:00,
2013-04-17 09:22:00,64.5,60.2,30.25,SSE,154,0.0,3.0,86,0.00,,,0.00,Weather View 32 v70,2013-04-17 13:22:00,
2013-04-17 09:27:00,65.1,60.5,30.25,South,191,0.0,3.0,85,0.00,,,0.00,Weather View 32 v70,2013-04-17 13:27:00,
2013-04-17 09:32:00,65.6,60.3,30.26,SSW,207,0.0,3.0,83,0.00,,,0.00,Weather View 32 v70,2013-04-17 13:32:00,
2013-04-17 09:37:00,66.0,60.0,30.26,SW,229,1.0,3.0,81,0.00,,,0.00,Weather View 32 v70,2013-04-17 13:37:00,
2013-04-17 09:45:00,66.5,60.1,30.25,NNE,17,0.0,3.0,80,0.00,,,0.00,Weather View 32 v70,2013-04-17 13:45:00,
2013-04-17 09:50:00,66.8,60.1,30.25,NNE,12,0.0,3.0,79,0.00,,,0.00,Weather View 32 v70,2013-04-17 13:50:00,
2013-04-17 09:55:00,67.1,60.0,30.25,SSW,193,2.0,3.0,78,0.00,,,0.00,Weather View 32 v70,2013-04-17 13:55:00,
2013-04-17 10:00:00,67.6,60.1,30.25,ESE,117,2.0,5.0,77,0.00,,,0.00,Weather View 32 v70,2013-04-17 14:00:00,
2013-04-17 10:05:00,68.3,60.8,30.25,SW,232,1.0,5.0,77,0.00,,,0.00,Weather View 32 v70,2013-04-17 14:05:00,
2013-04-17 10:10:00,69.0,60.3,30.25,SW,228,0.0,5.0,74,0.00,,,0.00,Weather View 32 v70,2013-04-17 14:10:00,
2013-04-17 10:15:00,69.4,60.7,30.24,SSW,197,1.0,5.0,74,0.00,,,0.00,Weather View 32 v70,2013-04-17 14:15:00,
2013-04-17 10:20:00,69.9,60.4,30.24,SSW,195,0.0,5.0,72,0.00,,,0.00,Weather View 32 v70,2013-04-17 14:20:00,
2013-04-17 10:25:00,70.3,60.8,30.24,SSW,204,2.0,5.0,72,0.00,,,0.00,Weather View 32 v70,2013-04-17 14:25:00,
2013-04-17 10:30:00,70.3,60.4,30.23,NNE,29,0.0,5.0,71,0.00,,,0.00,Weather View 32 v70,2013-04-17 14:30:00,
2013-04-17 10:35:00,70.3,60.8,30.23,ENE,77,3.0,5.0,72,0.00,,,0.00,Weather View 32 v70,2013-04-17 14:35:00,
2013-04-17 10:40:00,70.2,60.3,30.23,East,98,2.0,5.0,71,0.00,,,0.00,Weather View 32 v70,2013-04-17 14:40:00,
2013-04-17 10:45:00,70.4,60.1,30.23,NNE,21,0.0,5.0,70,0.00,,,0.00,Weather View 32 v70,2013-04-17 14:45:00,
2013-04-17 10:50:00,70.6,60.3,30.23,ENE,70,2.0,5.0,70,0.00,,,0.00,Weather View 32 v70,2013-04-17 14:50:00,
2013-04-17 10:55:00,71.0,60.7,30.23,South,174,0.0,5.0,70,0.00,,,0.00,Weather View 32 v70,2013-04-17 14:55:00,
2013-04-17 11:00:00,71.0,60.3,30.23,NE,50,1.0,5.0,69,0.00,,,0.00,Weather View 32 v70,2013-04-17 15:00:00,
2013-04-17 11:05:00,71.1,60.4,30.23,NNW,340,2.0,5.0,69,0.00,,,0.00,Weather View 32 v70,2013-04-17 15:05:00,
2013-04-17 11:10:00,71.2,60.5,30.23,NE,42,2.0,6.0,69,0.00,,,0.00,Weather View 32 v70,2013-04-17 15:10:00,
2013-04-17 11:15:00,71.5,60.8,30.23,NE,50,2.0,6.0,69,0.00,,,0.00,Weather View 32 v70,2013-04-17 15:15:00,
2013-04-17 11:20:00,71.7,60.1,30.23,NNE,18,3.0,6.0,67,0.00,,,0.00,Weather View 32 v70,2013-04-17 15:20:00,
2013-04-17 11:25:00,72.1,60.5,30.23,NE,39,2.0,6.0,67,0.00,,,0.00,Weather View 32 v70,2013-04-17 15:25:00,
2013-04-17 11:30:00,72.3,60.7,30.23,East,87,2.0,6.0,67,0.00,,,0.00,Weather View 32 v70,2013-04-17 15:30:00,
2013-04-17 11:35:00,72.5,60.9,30.23,NE,49,4.0,6.0,67,0.00,,,0.00,Weather View 32 v70,2013-04-17 15:35:00,
2013-04-17 11:40:00,72.5,60.9,30.23,ENE,71,1.0,6.0,67,0.00,,,0.00,Weather View 32 v70,2013-04-17 15:40:00,
2013-04-17 11:45:00,72.4,60.4,30.23,NNW,347,2.0,6.0,66,0.00,,,0.00,Weather View 32 v70,2013-04-17 15:45:00,
2013-04-17 11:50:00,72.6,60.6,30.23,North,8,5.0,6.0,66,0.00,,,0.00,Weather View 32 v70,2013-04-17 15:50:00,
2013-04-17 11:55:00,73.1,61.0,30.23,NE,45,1.0,6.0,66,0.00,,,0.00,Weather View 32 v70,2013-04-17 15:55:00,
2013-04-17 12:00:00,73.6,60.6,30.23,North,8,5.0,6.0,64,0.00,,,0.00,Weather View 32 v70,2013-04-17 16:00:00,
2013-04-17 12:05:00,73.9,60.9,30.22,WNW,301,2.0,6.0,64,0.00,,,0.00,Weather View 32 v70,2013-04-17 16:05:00,
2013-04-17 12:10:00,74.3,60.8,30.22,West,269,2.0,6.0,63,0.00,,,0.00,Weather View 32 v70,2013-04-17 16:10:00,
2013-04-17 12:15:00,75.0,61.1,30.22,East,83,3.0,6.0,62,0.00,,,0.00,Weather View 32 v70,2013-04-17 16:15:00,
2013-04-17 12:20:00,75.2,60.8,30.22,NNE,31,5.0,8.0,61,0.00,,,0.00,Weather View 32 v70,2013-04-17 16:20:00,
2013-04-17 12:25:00,75.3,60.9,30.22,NE,38,2.0,8.0,61,0.00,,,0.00,Weather View 32 v70,2013-04-17 16:25:00,
2013-04-17 12:30:00,75.8,60.9,30.22,East,88,2.0,8.0,60,0.00,,,0.00,Weather View 32 v70,2013-04-17 16:30:00,
2013-04-17 12:35:00,76.1,60.7,30.21,North,10,6.0,8.0,59,0.00,,,0.00,Weather View 32 v70,2013-04-17 16:35:00,
2013-04-17 12:40:00,76.4,61.4,30.21,NE,54,2.0,8.0,60,0.00,,,0.00,Weather View 32 v70,2013-04-17 16:40:00,
2013-04-17 12:45:00,76.5,61.1,30.21,East,86,0.0,8.0,59,0.00,,,0.00,Weather View 32 v70,2013-04-17 16:45:00,
2013-04-17 12:50:00,76.2,60.8,30.21,WNW,289,0.0,8.0,59,0.00,,,0.00,Weather View 32 v70,2013-04-17 16:50:00,
2013-04-17 12:55:00,76.0,60.6,30.20,NNW,347,0.0,8.0,59,0.00,,,0.00,Weather View 32 v70,2013-04-17 16:55:00,
2013-04-17 13:00:00,76.1,60.7,30.20,SW,228,0.0,8.0,59,0.00,,,0.00,Weather View 32 v70,2013-04-17 17:00:00,
2013-04-17 13:05:00,77.2,60.7,30.20,NE,45,4.0,8.0,57,0.00,,,0.00,Weather View 32 v70,2013-04-17 17:05:00,
2013-04-17 13:10:00,77.7,60.7,30.20,ENE,74,5.0,8.0,56,0.00,,,0.00,Weather View 32 v70,2013-04-17 17:10:00,
2013-04-17 13:15:00,77.5,60.5,30.20,ESE,109,0.0,8.0,56,0.00,,,0.00,Weather View 32 v70,2013-04-17 17:15:00,
2013-04-17 13:20:00,77.4,60.4,30.19,NNW,348,0.0,8.0,56,0.00,,,0.00,Weather View 32 v70,2013-04-17 17:20:00,
2013-04-17 13:25:00,76.6,59.7,30.19,North,8,3.0,7.0,56,0.00,,,0.00,Weather View 32 v70,2013-04-17 17:25:00,
2013-04-17 13:30:00,76.2,60.3,30.19,NNE,26,2.0,7.0,58,0.00,,,0.00,Weather View 32 v70,2013-04-17 17:30:00,
2013-04-17 13:35:00,75.6,59.7,30.19,NNE,24,2.0,7.0,58,0.00,,,0.00,Weather View 32 v70,2013-04-17 17:35:00,
2013-04-17 13:40:00,75.4,60.0,30.19,NNW,329,2.0,7.0,59,0.00,,,0.00,Weather View 32 v70,2013-04-17 17:40:00,
2013-04-17 13:45:00,74.8,59.9,30.19,SE,136,2.0,7.0,60,0.00,,,0.00,Weather View 32 v70,2013-04-17 17:45:00,
2013-04-17 13:50:00,74.3,60.4,30.19,SE,127,1.0,7.0,62,0.00,,,0.00,Weather View 32 v70,2013-04-17 17:50:00,
2013-04-17 13:55:00,73.9,60.5,30.19,East,80,0.0,7.0,63,0.00,,,0.00,Weather View 32 v70,2013-04-17 17:55:00,
2013-04-17 14:00:00,73.4,60.4,30.18,East,88,0.0,7.0,64,0.00,,,0.00,Weather View 32 v70,2013-04-17 18:00:00,
2013-04-17 14:05:00,72.9,60.4,30.19,NE,37,3.0,7.0,65,0.00,,,0.00,Weather View 32 v70,2013-04-17 18:05:00,
2013-04-17 14:10:00,72.7,61.1,30.19,ESE,110,0.0,7.0,67,0.00,,,0.00,Weather View 32 v70,2013-04-17 18:10:00,
2013-04-17 14:15:00,72.5,61.3,30.19,East,99,3.0,6.0,68,0.00,,,0.00,Weather View 32 v70,2013-04-17 18:15:00,
2013-04-17 14:20:00,72.3,61.1,30.19,ENE,64,2.0,6.0,68,0.00,,,0.00,Weather View 32 v70,2013-04-17 18:20:00,
2013-04-17 14:25:00,72.3,61.5,30.19,East,81,2.0,6.0,69,0.00,,,0.00,Weather View 32 v70,2013-04-17 18:25:00,
2013-04-17 14:30:00,72.0,61.6,30.19,East,86,3.0,6.0,70,0.00,,,0.00,Weather View 32 v70,2013-04-17 18:30:00,
2013-04-17 14:35:00,71.5,61.6,30.20,East,100,2.0,6.0,71,0.00,,,0.00,Weather View 32 v70,2013-04-17 18:35:00,
2013-04-17 14:40:00,70.8,59.7,30.19,South,179,1.0,7.0,68,0.00,,,0.00,Weather View 32 v70,2013-04-17 18:40:00,
2013-04-17 14:45:00,71.1,59.5,30.19,NE,55,6.0,8.0,67,0.00,,,0.00,Weather View 32 v70,2013-04-17 18:45:00,
2013-04-17 14:50:00,72.0,60.4,30.19,WNW,287,0.0,8.0,67,0.00,,,0.00,Weather View 32 v70,2013-04-17 18:50:00,
2013-04-17 14:55:00,72.6,60.6,30.18,East,82,3.0,8.0,66,0.00,,,0.00,Weather View 32 v70,2013-04-17 18:55:00,
2013-04-17 15:00:00,71.9,59.5,30.18,East,93,4.0,8.0,65,0.00,,,0.00,Weather View 32 v70,2013-04-17 19:00:00,
2013-04-17 15:05:00,71.5,58.6,30.18,East,87,3.0,8.0,64,0.00,,,0.00,Weather View 32 v70,2013-04-17 19:05:00,
2013-04-17 15:10:00,71.6,57.8,30.18,ENE,62,2.0,8.0,62,0.00,,,0.00,Weather View 32 v70,2013-04-17 19:10:00,
2013-04-17 15:16:00,71.7,57.5,30.18,East,86,4.0,8.0,61,0.00,,,0.00,Weather View 32 v70,2013-04-17 19:16:00,
2013-04-17 15:21:00,71.6,56.9,30.18,ENE,59,2.0,11.0,60,0.00,,,0.00,Weather View 32 v70,2013-04-17 19:21:00,
2013-04-17 15:26:00,71.6,56.5,30.18,East,99,3.0,11.0,59,0.00,,,0.00,Weather View 32 v70,2013-04-17 19:26:00,
2013-04-17 15:31:00,71.3,55.7,30.19,East,101,3.0,11.0,58,0.00,,,0.00,Weather View 32 v70,2013-04-17 19:31:00,
2013-04-17 15:36:00,71.2,56.1,30.20,East,83,4.0,11.0,59,0.00,,,0.00,Weather View 32 v70,2013-04-17 19:36:00,
2013-04-17 15:41:00,70.6,58.7,30.21,ESE,106,2.0,11.0,66,0.00,,,0.00,Weather View 32 v70,2013-04-17 19:41:00,
2013-04-17 15:46:00,69.7,59.4,30.21,East,96,2.0,11.0,70,0.00,,,0.00,Weather View 32 v70,2013-04-17 19:46:00,
2013-04-17 15:51:00,67.9,58.9,30.22,WSW,240,5.0,11.0,73,0.00,,,0.00,Weather View 32 v70,2013-04-17 19:51:00,
2013-04-17 15:56:00,66.1,59.0,30.21,West,273,2.0,11.0,78,0.00,,,0.00,Weather View 32 v70,2013-04-17 19:56:00,
2013-04-17 16:01:00,65.3,59.6,30.22,NNW,345,1.0,11.0,82,0.00,,,0.00,Weather View 32 v70,2013-04-17 20:01:00,
2013-04-17 16:06:00,64.6,59.3,30.22,SSW,194,3.0,11.0,83,0.00,,,0.00,Weather View 32 v70,2013-04-17 20:06:00,
2013-04-17 16:11:00,64.1,59.2,30.22,East,95,0.0,11.0,84,0.00,,,0.00,Weather View 32 v70,2013-04-17 20:11:00,
2013-04-17 16:16:00,63.7,59.1,30.21,SW,221,4.0,11.0,85,0.00,,,0.00,Weather View 32 v70,2013-04-17 20:16:00,
2013-04-17 16:21:00,63.4,58.8,30.21,SW,219,4.0,8.0,85,0.00,,,0.00,Weather View 32 v70,2013-04-17 20:21:00,
2013-04-17 16:26:00,63.3,59.0,30.20,SW,232,0.0,8.0,86,0.00,,,0.00,Weather View 32 v70,2013-04-17 20:26:00,
2013-04-17 16:31:00,63.2,58.9,30.20,East,83,2.0,8.0,86,0.00,,,0.00,Weather View 32 v70,2013-04-17 20:31:00,
2013-04-17 16:36:00,63.2,59.3,30.20,ENE,61,1.0,8.0,87,0.00,,,0.00,Weather View 32 v70,2013-04-17 20:36:00,
2013-04-17 16:41:00,63.2,59.9,30.20,ENE,78,0.0,8.0,89,0.00,,,0.00,Weather View 32 v70,2013-04-17 20:41:00,
2013-04-17 16:46:00,63.2,60.5,30.20,NE,34,0.0,8.0,91,0.00,,,0.00,Weather View 32 v70,2013-04-17 20:46:00,
2013-04-17 16:51:00,63.0,60.0,30.20,North,354,0.0,7.0,90,0.01,,,0.01,Weather View 32 v70,2013-04-17 20:51:00,
2013-04-17 16:56:00,62.9,59.9,30.19,ENE,77,0.0,7.0,90,0.01,,,0.01,Weather View 32 v70,2013-04-17 20:56:00,
2013-04-17 17:01:00,63.1,60.4,30.19,ENE,68,0.0,7.0,91,0.01,,,0.01,Weather View 32 v70,2013-04-17 21:01:00,
2013-04-17 17:07:00,63.1,60.4,30.20,SSE,161,0.0,7.0,91,0.01,,,0.01,Weather View 32 v70,2013-04-17 21:07:00,
2013-04-17 17:12:00,62.9,59.6,30.20,ENE,76,0.0,7.0,89,0.01,,,0.01,Weather View 32 v70,2013-04-17 21:12:00,
2013-04-17 17:17:00,63.0,60.3,30.20,ENE,70,0.0,7.0,91,0.01,,,0.01,Weather View 32 v70,2013-04-17 21:17:00,
2013-04-17 17:22:00,63.0,60.6,30.21,East,81,0.0,5.0,92,0.01,,,0.01,Weather View 32 v70,2013-04-17 21:22:00,
2013-04-17 17:27:00,62.6,59.3,30.21,NE,41,3.0,5.0,89,0.01,,,0.01,Weather View 32 v70,2013-04-17 21:27:00,
2013-04-17 17:32:00,62.5,58.9,30.21,NNE,20,3.0,5.0,88,0.01,,,0.01,Weather View 32 v70,2013-04-17 21:32:00,
2013-04-17 17:37:00,62.6,59.3,30.21,SSE,166,0.0,5.0,89,0.01,,,0.01,Weather View 32 v70,2013-04-17 21:37:00,
2013-04-17 17:42:00,62.4,59.7,30.20,SSE,167,0.0,5.0,91,0.01,,,0.01,Weather View 32 v70,2013-04-17 21:42:00,
2013-04-17 17:47:00,62.3,59.9,30.21,South,184,0.0,5.0,92,0.01,,,0.01,Weather View 32 v70,2013-04-17 21:47:00,
2013-04-17 17:52:00,62.0,59.3,30.20,SSW,212,0.0,5.0,91,0.00,,,0.01,Weather View 32 v70,2013-04-17 21:52:00,
2013-04-17 17:57:00,61.8,59.4,30.20,SSW,211,0.0,5.0,92,0.00,,,0.01,Weather View 32 v70,2013-04-17 21:57:00,
2013-04-17 18:02:00,61.4,59.7,30.20,SSW,212,0.0,5.0,94,0.01,,,0.02,Weather View 32 v70,2013-04-17 22:02:00,
2013-04-17 18:07:00,61.1,59.7,30.19,South,175,0.0,5.0,95,0.03,,,0.04,Weather View 32 v70,2013-04-17 22:07:00,
2013-04-17 18:12:00,60.9,59.7,30.19,NNE,29,0.0,4.0,96,0.03,,,0.04,Weather View 32 v70,2013-04-17 22:12:00,
2013-04-17 18:17:00,60.6,59.7,30.19,NNE,33,0.0,4.0,97,0.04,,,0.05,Weather View 32 v70,2013-04-17 22:17:00,
2013-04-17 18:22:00,60.4,59.8,30.19,SW,221,0.0,4.0,98,0.05,,,0.06,Weather View 32 v70,2013-04-17 22:22:00,
2013-04-17 18:27:00,60.2,59.9,30.19,SSW,213,0.0,3.0,99,0.06,,,0.07,Weather View 32 v70,2013-04-17 22:27:00,
2013-04-17 18:32:00,59.9,59.6,30.20,SSE,153,1.0,4.0,99,0.06,,,0.07,Weather View 32 v70,2013-04-17 22:32:00,
2013-04-17 18:37:00,59.8,59.8,30.20,SSE,147,0.0,4.0,100,0.06,,,0.07,Weather View 32 v70,2013-04-17 22:37:00,
2013-04-17 18:42:00,59.6,59.6,30.20,SW,219,0.0,4.0,100,0.07,,,0.08,Weather View 32 v70,2013-04-17 22:42:00,
2013-04-17 18:47:00,59.3,59.3,30.20,SW,217,0.0,4.0,100,0.07,,,0.08,Weather View 32 v70,2013-04-17 22:47:00,
2013-04-17 18:52:00,59.2,59.2,30.20,SSW,213,0.0,4.0,100,0.07,,,0.08,Weather View 32 v70,2013-04-17 22:52:00,
2013-04-17 18:57:00,59.2,59.2,30.21,SSW,213,0.0,4.0,100,0.08,,,0.09,Weather View 32 v70,2013-04-17 22:57:00,
2013-04-17 19:02:00,59.2,59.2,30.21,SSW,211,0.0,4.0,100,0.08,,,0.10,Weather View 32 v70,2013-04-17 23:02:00,
2013-04-17 19:07:00,59.2,59.2,30.20,SSW,211,0.0,4.0,100,0.06,,,0.10,Weather View 32 v70,2013-04-17 23:07:00,
2013-04-17 19:12:00,59.1,59.1,30.20,SSW,199,0.0,4.0,100,0.06,,,0.10,Weather View 32 v70,2013-04-17 23:12:00,
2013-04-17 19:17:00,59.1,59.1,30.19,SSW,199,0.0,4.0,100,0.05,,,0.10,Weather View 32 v70,2013-04-17 23:17:00,
2013-04-17 19:22:00,59.0,59.0,30.19,SSW,198,0.0,4.0,100,0.04,,,0.10,Weather View 32 v70,2013-04-17 23:22:00,
2013-04-17 19:27:00,59.0,59.0,30.19,SSW,198,0.0,4.0,100,0.03,,,0.10,Weather View 32 v70,2013-04-17 23:27:00,
2013-04-17 19:32:00,58.9,58.9,30.19,SSW,199,0.0,1.0,100,0.03,,,0.10,Weather View 32 v70,2013-04-17 23:32:00,
2013-04-17 19:37:00,58.7,58.7,30.19,SSW,207,0.0,0.0,100,0.03,,,0.10,Weather View 32 v70,2013-04-17 23:37:00,
2013-04-17 19:42:00,58.6,58.6,30.19,SSW,206,0.0,0.0,100,0.02,,,0.10,Weather View 32 v70,2013-04-17 23:42:00,
2013-04-17 19:47:00,58.6,58.6,30.19,SSW,206,0.0,0.0,100,0.02,,,0.10,Weather View 32 v70,2013-04-17 23:47:00,
2013-04-17 19:52:00,58.6,58.6,30.19,SSW,206,0.0,0.0,100,0.02,,,0.10,Weather View 32 v70,2013-04-17 23:52:00,
2013-04-17 19:57:00,58.5,58.5,30.19,SW,231,0.0,0.0,100,0.01,,,0.10,Weather View 32 v70,2013-04-17 23:57:00,
2013-04-17 20:02:00,58.5,58.5,30.19,SW,222,0.0,0.0,100,0.00,,,0.10,Weather View 32 v70,2013-04-18 00:02:00,
2013-04-17 20:07:00,58.5,58.5,30.19,SW,221,0.0,0.0,100,0.00,,,0.10,Weather View 32 v70,2013-04-18 00:07:00,
2013-04-17 20:12:00,58.4,58.4,30.20,SW,221,0.0,0.0,100,0.00,,,0.10,Weather View 32 v70,2013-04-18 00:12:00,
2013-04-17 20:17:00,58.4,58.4,30.20,SW,221,0.0,0.0,100,0.00,,,0.10,Weather View 32 v70,2013-04-18 00:17:00,
2013-04-17 20:22:00,58.3,58.3,30.20,SW,223,0.0,0.0,100,0.00,,,0.10,Weather View 32 v70,2013-04-18 00:22:00,
2013-04-17 20:27:00,58.3,58.3,30.20,SSW,211,0.0,0.0,100,0.01,,,0.11,Weather View 32 v70,2013-04-18 00:27:00,
2013-04-17 20:32:00,58.3,58.3,30.20,SSW,211,0.0,0.0,100,0.01,,,0.11,Weather View 32 v70,2013-04-18 00:32:00,
2013-04-17 20:37:00,58.2,58.2,30.20,SW,217,0.0,0.0,100,0.01,,,0.11,Weather View 32 v70,2013-04-18 00:37:00,
2013-04-17 20:42:00,58.1,58.1,30.19,SSW,211,0.0,0.0,100,0.01,,,0.11,Weather View 32 v70,2013-04-18 00:42:00,
2013-04-17 20:47:00,58.1,58.1,30.19,SSW,208,0.0,0.0,100,0.01,,,0.11,Weather View 32 v70,2013-04-18 00:47:00,
2013-04-17 20:52:00,58.1,58.1,30.19,SSW,208,0.0,0.0,100,0.01,,,0.11,Weather View 32 v70,2013-04-18 00:52:00,
2013-04-17 20:57:00,58.0,58.0,30.18,SSW,209,0.0,0.0,100,0.01,,,0.11,Weather View 32 v70,2013-04-18 00:57:00,
2013-04-17 21:02:00,58.0,58.0,30.17,SSW,208,0.0,0.0,100,0.01,,,0.11,Weather View 32 v70,2013-04-18 01:02:00,
2013-04-17 21:07:00,58.0,58.0,30.17,SSW,208,0.0,0.0,100,0.01,,,0.11,Weather View 32 v70,2013-04-18 01:07:00,
2013-04-17 21:12:00,58.0,58.0,30.17,SSW,208,0.0,0.0,100,0.01,,,0.11,Weather View 32 v70,2013-04-18 01:12:00,
2013-04-17 21:17:00,57.9,57.9,30.18,SSW,208,0.0,0.0,100,0.01,,,0.11,Weather View 32 v70,2013-04-18 01:17:00,
2013-04-17 21:22:00,57.8,57.8,30.18,SSW,213,0.0,0.0,100,0.02,,,0.12,Weather View 32 v70,2013-04-18 01:22:00,
2013-04-17 21:27:00,57.9,57.9,30.19,NNE,28,0.0,0.0,100,0.01,,,0.12,Weather View 32 v70,2013-04-18 01:27:00,
2013-04-17 21:32:00,57.8,57.8,30.18,SW,216,0.0,0.0,100,0.01,,,0.12,Weather View 32 v70,2013-04-18 01:32:00,
2013-04-17 21:37:00,57.9,57.9,30.18,SW,217,0.0,0.0,100,0.01,,,0.12,Weather View 32 v70,2013-04-18 01:37:00,
2013-04-17 21:42:00,57.8,57.8,30.18,SW,219,0.0,0.0,100,0.01,,,0.12,Weather View 32 v70,2013-04-18 01:42:00,
2013-04-17 21:47:00,57.7,57.7,30.18,SW,221,0.0,0.0,100,0.01,,,0.12,Weather View 32 v70,2013-04-18 01:47:00,
2013-04-17 21:52:00,57.6,57.6,30.18,SE,127,0.0,0.0,100,0.01,,,0.12,Weather View 32 v70,2013-04-18 01:52:00,
2013-04-17 21:57:00,57.4,57.4,30.17,SSW,208,0.0,2.0,100,0.01,,,0.12,Weather View 32 v70,2013-04-18 01:57:00,
2013-04-17 22:02:00,57.3,57.3,30.17,SSW,206,0.0,2.0,100,0.01,,,0.12,Weather View 32 v70,2013-04-18 02:02:00,
2013-04-17 22:07:00,57.2,57.2,30.17,WSW,242,0.0,3.0,100,0.01,,,0.12,Weather View 32 v70,2013-04-18 02:07:00,
2013-04-17 22:13:00,57.1,57.1,30.17,SW,215,2.0,3.0,100,0.01,,,0.12,Weather View 32 v70,2013-04-18 02:13:00,
2013-04-17 22:18:00,57.1,57.1,30.17,SSW,207,2.0,3.0,100,0.01,,,0.12,Weather View 32 v70,2013-04-18 02:18:00,
2013-04-17 22:23:00,57.0,57.0,30.17,SSW,211,0.0,3.0,100,0.00,,,0.12,Weather View 32 v70,2013-04-18 02:23:00,
2013-04-17 22:28:00,57.0,57.0,30.16,SW,224,0.0,3.0,100,-0.12,,,0.12,Weather View 32 v70,2013-04-18 02:28:00,
2013-04-17 22:33:00,57.0,57.0,30.16,SSW,212,0.0,3.0,100,-0.12,,,0.12,Weather View 32 v70,2013-04-18 02:33:00,
2013-04-17 22:38:00,57.0,57.0,30.16,SSW,208,0.0,3.0,100,0.00,,,0.12,Weather View 32 v70,2013-04-18 02:38:00,
2013-04-17 22:43:00,57.0,57.0,30.16,SSW,210,0.0,3.0,100,0.00,,,0.12,Weather View 32 v70,2013-04-18 02:43:00,
2013-04-17 22:48:00,57.0,57.0,30.15,SSW,213,2.0,3.0,100,0.00,,,0.12,Weather View 32 v70,2013-04-18 02:48:00,
2013-04-17 22:53:00,57.0,57.0,30.15,SSW,213,3.0,3.0,100,0.00,,,0.12,Weather View 32 v70,2013-04-18 02:53:00,
2013-04-17 22:58:00,57.1,57.1,30.14,SSW,204,2.0,4.0,100,0.00,,,0.12,Weather View 32 v70,2013-04-18 02:58:00,
2013-04-17 23:03:00,57.2,57.2,30.14,SW,224,2.0,8.0,100,0.00,,,0.12,Weather View 32 v70,2013-04-18 03:03:00,
2013-04-17 23:08:00,57.2,57.2,30.14,SSE,163,0.0,8.0,100,0.00,,,0.12,Weather View 32 v70,2013-04-18 03:08:00,
2013-04-17 23:13:00,57.2,57.2,30.14,SSW,205,0.0,8.0,100,0.00,,,0.12,Weather View 32 v70,2013-04-18 03:13:00,
2013-04-17 23:18:00,57.2,57.2,30.13,SW,216,3.0,8.0,100,0.00,,,0.12,Weather View 32 v70,2013-04-18 03:18:00,
2013-04-17 23:23:00,57.1,57.1,30.13,SW,222,2.0,8.0,100,0.00,,,0.12,Weather View 32 v70,2013-04-18 03:23:00,
2013-04-17 23:28:00,57.1,57.1,30.12,SSW,208,3.0,8.0,100,0.00,,,0.12,Weather View 32 v70,2013-04-18 03:28:00,
2013-04-17 23:33:00,57.1,57.1,30.12,SW,214,0.0,8.0,100,0.00,,,0.12,Weather View 32 v70,2013-04-18 03:33:00,
2013-04-17 23:38:00,57.1,57.1,30.12,SSW,210,0.0,8.0,100,0.00,,,0.12,Weather View 32 v70,2013-04-18 03:38:00,
2013-04-17 23:43:00,57.0,57.0,30.12,SW,214,0.0,8.0,100,0.00,,,0.12,Weather View 32 v70,2013-04-18 03:43:00,
2013-04-17 23:48:00,56.9,56.9,30.12,SSW,206,0.0,8.0,100,0.00,,,0.12,Weather View 32 v70,2013-04-18 03:48:00,
2013-04-17 23:53:00,56.9,56.9,30.11,SW,222,0.0,8.0,100,0.00,,,0.12,Weather View 32 v70,2013-04-18 03:53:00,
2013-04-17 23:58:00,56.9,56.9,30.11,SW,215,0.0,8.0,100,0.00,,,0.12,Weather View 32 v70,2013-04-18 03:58:00,